QPF
0.01 0.01 0.01 0.01 0.01 0.02 0.02 0.02 0.01 0.01 0.01 0.01 0.01 0.01 0.01 0.01 0.01 0.01 0.01 0.02 0.02 0.01 0.01 0.01 0.00 0.01 0.01 0.01 0.01 0.01 0.01 0.01 0.02 0.01 0.00 0.00 0.00 0.01 0.04 0.04 0.02 0.01 0.01
0.01 0.01 0.01 0.01 0.01 0.02 0.02 0.02 0.02 0.01 0.01 0.01 0.01 0.01 0.01 0.01 0.01 0.01 0.01 0.01 0.01 0.01 0.01 0.00 0.00 0.00 0.00 0.01 0.01 0.01 0.01 0.01 0.01 0.00 0.00 0.00 0.00 0.01 0.04 0.03 0.02 0.01 0.01
0.01 0.01 0.01 0.01 0.01 0.01 0.02 0.02 0.02 0.02 0.02 0.01 0.01 0.01 0.01 0.01 0.01 0.01 0.01 0.01 0.01 0.01 0.01 0.01 0.00 0.00 0.00 0.00 0.00 0.00 0.00 0.00 0.00 0.00 0.00 0.00 0.00 0.01 0.03 0.03 0.02 0.01 0.01
0.01 0.01 0.01 0.01 0.00 0.00 0.01 0.01 0.02 0.02 0.02 0.01 0.01 0.01 0.01 0.01 0.01 0.02 0.02 0.01 0.01 0.01 0.02 0.02 0.01 0.01 0.00 0.00 0.00 0.00 0.00 0.00 0.00 0.00 0.00 0.00 0.00 0.00 0.01 0.02 0.02 0.01 0.01
0.01 0.00 0.00 0.00 0.00 0.00 0.00 0.01 0.01 0.02 0.01 0.01 0.01 0.01 0.01 0.01 0.01 0.02 0.02 0.02 0.02 0.02 0.02 0.02 0.01 0.01 0.00 0.00 0.00 0.00 0.00 0.00 0.00 0.00 0.00 0.00 0.00 0.00 0.01 0.01 0.01 0.01 0.01
0.00 0.00 0.00 0.00 0.00 0.00 0.00 0.00 0.01 0.01 0.01 0.01 0.01 0.01 0.01 0.01 0.01 0.01 0.01 0.01 0.02 0.02 0.02 0.02 0.01 0.01 0.00 0.00 0.00 0.00 0.00 0.00 0.00 0.00 0.00 0.00 0.00 0.00 0.01 0.01 0.01 0.01 0.01
0.00 0.00 0.00 0.00 0.00 0.00 0.00 0.01 0.01 0.00 0.00 0.00 0.01 0.01 0.01 0.01 0.01 0.01 0.01 0.01 0.01 0.01 0.01 0.01 0.01 0.00 0.00 0.00 0.00 0.00 0.00 0.00 0.00 0.00 0.00 0.00 0.00 0.00 0.00 0.00 0.01 0.01 0.01
0.00 0.00 0.00 0.00 0.00 0.00 0.01 0.01 0.01 0.01 0.00 0.01 0.00 0.01 0.01 0.01 0.01 0.00 0.01 0.00 0.00 0.00 0.00 0.01 0.00 0.00 0.00 0.00 0.00 0.00 0.00 0.00 0.00 0.00 0.00 0.00 0.00 0.00 0.00 0.01 0.01 0.00 0.00
0.01 0.00 0.01 0.01 0.00 0.00 0.00 0.01 0.01 0.01 0.01 0.01 0.01 0.00 0.01 0.01 0.01 0.01 0.01 0.00 0.00 0.00 0.00 0.00 0.00 0.00 0.00 0.00 0.00 0.00 0.00 0.00 0.00 0.00 0.00 0.00 0.00 0.00 0.00 0.00 0.00 0.00 0.00
0.01 0.01 0.01 0.01 0.00 0.00 0.00 0.01 0.01 0.01 0.01 0.01 0.00 0.00 0.01 0.01 0.01 0.01 0.01 0.01 0.01 0.01 0.01 0.01 0.00 0.00 0.00 0.00 0.00 0.00 0.00 0.00 0.00 0.00 0.00 0.00 0.00 0.00 0.00 0.00 0.00 0.00 0.00
0.01 0.01 0.01 0.01 0.01 0.01 0.00 0.01 0.01 0.01 0.01 0.00 0.00 0.00 0.00 0.00 0.01 0.01 0.01 0.01 0.01 0.01 0.02 0.02 0.01 0.01 0.01 0.00 0.00 0.00 0.00 0.00 0.00 0.00 0.00 0.00 0.00 0.00 0.00 0.00 0.00 0.00 0.00
0.01 0.01 0.02 0.02 0.03 0.03 0.01 0.01 0.01 0.01 0.01 0.01 0.00 0.00 0.00 0.00 0.01 0.01 0.01 0.01 0.01 0.01 0.01 0.01 0.01 0.02 0.01 0.01 0.00 0.00 0.00 0.00 0.00 0.00 0.00 0.00 0.00 0.00 0.00 0.00 0.00 0.00 0.00
0.01 0.01 0.01 0.02 0.02 0.03 0.03 0.02 0.02 0.02 0.02 0.01 0.01 0.00 0.00 0.00 0.01 0.01 0.01 0.01 0.01 0.01 0.02 0.01 0.01 0.01 0.01 0.01 0.00 0.00 0.00 0.00 0.00 0.00 0.00 0.00 0.00 0.00 0.00 0.00 0.00 0.00 0.00
0.01 0.01 0.02 0.02 0.02 0.03 0.04 0.03 0.02 0.02 0.03 0.02 0.02 0.01 0.01 0.01 0.01 0.01 0.01 0.01 0.02 0.02 0.03 0.03 0.02 0.01 0.01 0.00 0.00 0.00 0.00 0.00 0.00 0.00 0.00 0.00 0.00 0.00 0.00 0.00 0.00 0.00 0.00
0.01 0.01 0.02 0.02 0.02 0.02 0.03 0.03 0.02 0.02 0.02 0.02 0.02 0.02 0.02 0.02 0.02 0.03 0.02 0.02 0.02 0.02 0.02 0.02 0.03 0.02 0.01 0.01 0.01 0.00 0.01 0.00 0.00 0.00 0.00 0.00 0.01 0.00 0.01 0.01 0.00 0.00 0.00
0.01 0.01 0.01 0.02 0.03 0.03 0.03 0.03 0.03 0.02 0.02 0.02 0.02 0.02 0.03 0.03 0.03 0.03 0.03 0.02 0.02 0.01 0.01 0.02 0.02 0.03 0.03 0.02 0.02 0.02 0.02 0.01 0.01 0.01 0.01 0.01 0.01 0.01 0.01 0.01 0.01 0.01 0.00
0.01 0.02 0.02 0.02 0.03 0.03 0.03 0.04 0.04 0.04 0.04 0.03 0.03 0.02 0.02 0.02 0.02 0.02 0.02 0.02 0.01 0.01 0.01 0.01 0.02 0.02 0.03 0.03 0.03 0.03 0.03 0.03 0.03 0.02 0.02 0.01 0.01 0.01 0.01 0.01 0.01 0.01 0.01
0.02 0.02 0.02 0.03 0.03 0.03 0.03 0.02 0.02 0.02 0.02 0.02 0.02 0.02 0.02 0.01 0.01 0.01 0.01 0.01 0.01 0.01 0.01 0.01 0.02 0.04 0.04 0.05 0.05 0.04 0.04 0.03 0.03 0.02 0.01 0.00 0.00 0.00 0.00 0.00 0.00 0.01 0.01
0.03 0.02 0.02 0.02 0.02 0.02 0.01 0.01 0.01 0.01 0.01 0.01 0.01 0.01 0.01 0.01 0.01 0.01 0.01 0.01 0.01 0.02 0.02 0.02 0.03 0.04 0.06 0.06 0.05 0.04 0.04 0.03 0.02 0.01 0.00 0.00 0.00 0.00 0.00 0.00 0.00 0.00 0.01
0.04 0.03 0.03 0.02 0.02 0.02 0.01 0.01 0.01 0.02 0.01 0.01 0.01 0.01 0.01 0.01 0.01 0.01 0.01 0.01 0.02 0.03 0.03 0.02 0.02 0.02 0.02 0.03 0.04 0.04 0.03 0.03 0.02 0.02 0.01 0.01 0.00 0.00 0.00 0.00 0.00 0.00 0.00
0.04 0.05 0.04 0.03 0.02 0.03 0.02 0.01 0.01 0.01 0.01 0.01 0.01 0.01 0.01 0.01 0.02 0.02 0.02 0.02 0.03 0.03 0.03 0.02 0.02 0.01 0.01 0.01 0.02 0.02 0.03 0.03 0.03 0.02 0.02 0.01 0.01 0.01 0.00 0.00 0.00 0.00 0.00
0.04 0.05 0.04 0.04 0.04 0.03 0.03 0.01 0.01 0.01 0.01 0.01 0.01 0.02 0.02 0.02 0.02 0.03 0.03 0.03 0.03 0.03 0.03 0.03 0.02 0.02 0.01 0.01 0.01 0.01 0.02 0.02 0.03 0.03 0.03 0.02 0.02 0.01 0.01 0.01 0.01 0.01 0.01
0.04 0.04 0.04 0.04 0.03 0.03 0.02 0.01 0.01 0.01 0.01 0.02 0.02 0.02 0.02 0.02 0.03 0.04 0.04 0.03 0.03 0.02 0.02 0.02 0.02 0.01 0.01 0.01 0.01 0.01 0.01 0.02 0.02 0.02 0.02 0.02 0.02 0.02 0.02 0.02 0.02 0.01 0.01
0.05 0.05 0.04 0.03 0.02 0.02 0.01 0.01 0.01 0.01 0.02 0.02 0.02 0.03 0.02 0.01 0.01 0.02 0.03 0.02 0.02 0.02 0.01 0.01 0.01 0.01 0.01 0.01 0.01 0.01 0.01 0.01 0.02 0.02 0.02 0.02 0.02 0.02 0.03 0.03 0.02 0.02 0.02
0.05 0.06 0.04 0.03 0.02 0.02 0.01 0.01 0.02 0.02 0.02 0.02 0.02 0.02 0.01 0.01 0.01 0.02 0.02 0.02 0.01 0.01 0.01 0.01 0.02 0.02 0.02 0.02 0.01 0.01 0.01 0.01 0.02 0.02 0.02 0.02 0.03 0.03 0.02 0.02 0.02 0.02 0.02
0.03 0.04 0.04 0.04 0.04 0.03 0.02 0.03 0.02 0.02 0.02 0.02 0.01 0.01 0.01 0.01 0.02 0.02 0.02 0.02 0.02 0.02 0.02 0.02 0.02 0.02 0.02 0.01 0.01 0.01 0.01 0.01 0.01 0.01 0.01 0.01 0.01 0.01 0.02 0.02 0.02 0.02 0.02
MSLP
1017.31 1017.36 1017.43 1017.52 1017.60 1017.67 1017.70 1017.72 1017.72 1017.71 1017.72 1017.74 1017.80 1017.88 1018.00 1018.14 1018.31 1018.50 1018.70 1018.93 1019.17 1019.43 1019.71 1020.02 1020.38 1020.78 1021.24 1021.77 1022.35 1022.99 1023.65 1024.33 1024.97 1025.55 1026.03 1026.39 1026.62 1026.72 1026.71 1026.61 1026.47 1026.31 1026.16
1017.46 1017.52 1017.59 1017.65 1017.71 1017.75 1017.76 1017.77 1017.76 1017.76 1017.77 1017.80 1017.86 1017.95 1018.07 1018.21 1018.38 1018.58 1018.79 1019.03 1019.28 1019.55 1019.83 1020.13 1020.46 1020.82 1021.21 1021.67 1022.18 1022.75 1023.37 1024.03 1024.68 1025.31 1025.87 1026.33 1026.69 1026.91 1027.03 1027.04 1026.98 1026.88 1026.76
1017.55 1017.66 1017.75 1017.82 1017.86 1017.88 1017.88 1017.87 1017.86 1017.85 1017.87 1017.91 1017.97 1018.07 1018.19 1018.33 1018.51 1018.71 1018.93 1019.18 1019.44 1019.72 1020.00 1020.30 1020.60 1020.92 1021.26 1021.65 1022.08 1022.58 1023.13 1023.74 1024.37 1025.01 1025.61 1026.15 1026.60 1026.95 1027.18 1027.30 1027.34 1027.32 1027.26
1017.52 1017.70 1017.84 1017.93 1017.99 1018.01 1018.01 1017.99 1017.99 1017.99 1018.01 1018.06 1018.14 1018.23 1018.35 1018.50 1018.67 1018.86 1019.08 1019.33 1019.60 1019.88 1020.17 1020.45 1020.74 1021.03 1021.33 1021.66 1022.02 1022.44 1022.91 1023.45 1024.03 1024.64 1025.25 1025.82 1026.34 1026.77 1027.10 1027.34 1027.48 1027.55 1027.55
1017.31 1017.58 1017.79 1017.93 1018.02 1018.07 1018.09 1018.09 1018.10 1018.13 1018.17 1018.24 1018.32 1018.42 1018.54 1018.68 1018.84 1019.02 1019.23 1019.46 1019.72 1020.00 1020.28 1020.57 1020.85 1021.12 1021.39 1021.66 1021.97 1022.31 1022.70 1023.15 1023.66 1024.21 1024.78 1025.35 1025.89 1026.37 1026.78 1027.11 1027.34 1027.51 1027.60
1016.91 1017.26 1017.55 1017.77 1017.92 1018.01 1018.07 1018.12 1018.17 1018.23 1018.31 1018.40 1018.51 1018.62 1018.74 1018.86 1019.00 1019.16 1019.34 1019.55 1019.79 1020.05 1020.33 1020.61 1020.89 1021.15 1021.40 1021.65 1021.90 1022.18 1022.50 1022.87 1023.29 1023.76 1024.26 1024.79 1025.31 1025.81 1026.25 1026.64 1026.96 1027.21 1027.39
1016.32 1016.75 1017.12 1017.42 1017.64 1017.81 1017.94 1018.05 1018.16 1018.27 1018.40 1018.53 1018.66 1018.78 1018.90 1019.02 1019.13 1019.26 1019.41 1019.59 1019.80 1020.05 1020.31 1020.59 1020.87 1021.13 1021.38 1021.62 1021.85 1022.08 1022.33 1022.62 1022.96 1023.34 1023.76 1024.22 1024.69 1025.16 1025.61 1026.02 1026.40 1026.72 1026.98
1015.60 1016.10 1016.54 1016.91 1017.21 1017.46 1017.67 1017.86 1018.04 1018.22 1018.40 1018.58 1018.74 1018.89 1019.02 1019.13 1019.22 1019.33 1019.45 1019.60 1019.78 1020.01 1020.26 1020.54 1020.82 1021.09 1021.35 1021.59 1021.81 1022.02 1022.24 1022.47 1022.73 1023.03 1023.37 1023.75 1024.15 1024.57 1024.99 1025.40 1025.79 1026.15 1026.48
1014.83 1015.37 1015.87 1016.30 1016.68 1017.00 1017.29 1017.56 1017.81 1018.06 1018.31 1018.53 1018.74 1018.91 1019.06 1019.17 1019.26 1019.35 1019.45 1019.58 1019.75 1019.96 1020.21 1020.48 1020.77 1021.07 1021.34 1021.60 1021.83 1022.04 1022.25 1022.45 1022.66 1022.90 1023.17 1023.47 1023.80 1024.15 1024.52 1024.90 1025.27 1025.64 1025.99
1014.08 1014.64 1015.17 1015.65 1016.08 1016.47 1016.83 1017.17 1017.49 1017.80 1018.10 1018.37 1018.62 1018.82 1018.99 1019.12 1019.23 1019.32 1019.43 1019.55 1019.72 1019.92 1020.17 1020.45 1020.76 1021.07 1021.37 1021.65 1021.91 1022.14 1022.35 1022.55 1022.75 1022.95 1023.17 1023.42 1023.68 1023.97 1024.28 1024.60 1024.94 1025.28 1025.62
1013.40 1013.95 1014.48 1014.98 1015.45 1015.89 1016.30 1016.69 1017.06 1017.42 1017.76 1018.08 1018.36 1018.60 1018.80 1018.96 1019.09 1019.22 1019.34 1019.49 1019.67 1019.89 1020.15 1020.45 1020.77 1021.09 1021.41 1021.72 1022.01 1022.27 1022.51 1022.73 1022.94 1023.14 1023.35 1023.56 1023.79 1024.03 1024.28 1024.54 1024.82 1025.10 1025.40
1012.79 1013.30 1013.82 1014.32 1014.81 1015.26 1015.70 1016.13 1016.53 1016.92 1017.29 1017.63 1017.94 1018.21 1018.45 1018.65 1018.83 1019.00 1019.18 1019.37 1019.59 1019.84 1020.12 1020.43 1020.76 1021.10 1021.44 1021.77 1022.08 1022.38 1022.65 1022.91 1023.15 1023.38 1023.60 1023.81 1024.02 1024.23 1024.44 1024.65 1024.86 1025.08 1025.31
1012.22 1012.68 1013.16 1013.65 1014.13 1014.59 1015.04 1015.48 1015.89 1016.29 1016.67 1017.02 1017.35 1017.65 1017.93 1018.18 1018.42 1018.65 1018.89 1019.15 1019.42 1019.71 1020.02 1020.35 1020.69 1021.04 1021.38 1021.72 1022.05 1022.37 1022.68 1022.97 1023.26 1023.53 1023.79 1024.02 1024.24 1024.45 1024.63 1024.80 1024.96 1025.12 1025.27
1011.64 1012.03 1012.47 1012.93 1013.39 1013.85 1014.30 1014.74 1015.15 1015.54 1015.92 1016.27 1016.61 1016.93 1017.24 1017.54 1017.84 1018.15 1018.46 1018.79 1019.12 1019.46 1019.80 1020.15 1020.49 1020.83 1021.17 1021.50 1021.83 1022.16 1022.49 1022.82 1023.15 1023.47 1023.77 1024.05 1024.30 1024.52 1024.70 1024.85 1024.98 1025.09 1025.19
1010.97 1011.31 1011.70 1012.13 1012.59 1013.04 1013.48 1013.91 1014.31 1014.69 1015.06 1015.40 1015.74 1016.07 1016.41 1016.76 1017.12 1017.49 1017.87 1018.26 1018.65 1019.04 1019.41 1019.77 1020.11 1020.43 1020.75 1021.06 1021.37 1021.70 1022.04 1022.39 1022.74 1023.10 1023.45 1023.77 1024.06 1024.31 1024.51 1024.67 1024.78 1024.87 1024.94
1010.17 1010.46 1010.83 1011.25 1011.69 1012.15 1012.60 1013.02 1013.42 1013.79 1014.13 1014.47 1014.80 1015.13 1015.49 1015.87 1016.27 1016.70 1017.14 1017.58 1018.02 1018.44 1018.83 1019.19 1019.52 1019.82 1020.10 1020.38 1020.66 1020.96 1021.29 1021.64 1022.01 1022.39 1022.77 1023.13 1023.45 1023.73 1023.96 1024.14 1024.27 1024.36 1024.43
1009.25 1009.51 1009.86 1010.28 1010.74 1011.21 1011.67 1012.11 1012.51 1012.87 1013.21 1013.53 1013.85 1014.18 1014.54 1014.93 1015.36 1015.82 1016.29 1016.78 1017.24 1017.68 1018.08 1018.43 1018.74 1019.01 1019.25 1019.49 1019.73 1020.00 1020.30 1020.63 1021.00 1021.38 1021.77 1022.14 1022.49 1022.79 1023.05 1023.25 1023.41 1023.53 1023.62
1008.23 1008.48 1008.84 1009.28 1009.77 1010.27 1010.76 1011.22 1011.63 1012.00 1012.33 1012.64 1012.94 1013.27 1013.62 1014.01 1014.44 1014.90 1015.39 1015.88 1016.36 1016.79 1017.18 1017.52 1017.80 1018.03 1018.24 1018.44 1018.64 1018.87 1019.13 1019.44 1019.78 1020.15 1020.53 1020.90 1021.25 1021.56 1021.83 1022.06 1022.24 1022.40 1022.54
1007.18 1007.44 1007.82 1008.30 1008.83 1009.37 1009.90 1010.38 1010.82 1011.20 1011.53 1011.83 1012.13 1012.43 1012.76 1013.13 1013.54 1013.99 1014.47 1014.94 1015.40 1015.81 1016.18 1016.49 1016.74 1016.95 1017.12 1017.28 1017.45 1017.65 1017.88 1018.15 1018.46 1018.80 1019.15 1019.50 1019.84 1020.14 1020.41 1020.65 1020.86 1021.05 1021.25
1006.18 1006.46 1006.88 1007.39 1007.96 1008.54 1009.11 1009.62 1010.08 1010.48 1010.81 1011.11 1011.39 1011.67 1011.98 1012.32 1012.70 1013.11 1013.54 1013.98 1014.40 1014.78 1015.11 1015.39 1015.61 1015.79 1015.94 1016.08 1016.22 1016.40 1016.60 1016.85 1017.12 1017.43 1017.75 1018.06 1018.37 1018.65 1018.90 1019.14 1019.37 1019.59 1019.83
1005.31 1005.62 1006.06 1006.61 1007.20 1007.82 1008.41 1008.94 1009.42 1009.82 1010.16 1010.45 1010.72 1010.98 1011.25 1011.56 1011.89 1012.25 1012.63 1013.01 1013.37 1013.71 1013.99 1014.23 1014.43 1014.58 1014.72 1014.85 1014.98 1015.15 1015.34 1015.56 1015.82 1016.09 1016.38 1016.66 1016.93 1017.18 1017.42 1017.65 1017.88 1018.13 1018.41
1004.64 1004.97 1005.42 1005.97 1006.58 1007.19 1007.79 1008.33 1008.80 1009.20 1009.54 1009.82 1010.07 1010.31 1010.55 1010.82 1011.10 1011.40 1011.72 1012.03 1012.33 1012.61 1012.85 1013.05 1013.21 1013.35 1013.48 1013.60 1013.74 1013.91 1014.10 1014.33 1014.57 1014.83 1015.09 1015.34 1015.59 1015.81 1016.03 1016.25 1016.49 1016.75 1017.07
1004.22 1004.53 1004.97 1005.50 1006.08 1006.67 1007.24 1007.76 1008.21 1008.59 1008.92 1009.18 1009.42 1009.63 1009.84 1010.07 1010.30 1010.55 1010.80 1011.05 1011.28 1011.49 1011.68 1011.84 1011.97 1012.09 1012.22 1012.35 1012.51 1012.69 1012.90 1013.13 1013.38 1013.64 1013.90 1014.14 1014.37 1014.59 1014.80 1015.02 1015.27 1015.56 1015.91
1004.03 1004.32 1004.72 1005.20 1005.72 1006.25 1006.76 1007.23 1007.64 1007.99 1008.28 1008.53 1008.74 1008.93 1009.11 1009.30 1009.49 1009.68 1009.87 1010.06 1010.23 1010.38 1010.52 1010.63 1010.74 1010.85 1010.97 1011.12 1011.29 1011.49 1011.72 1011.98 1012.25 1012.53 1012.80 1013.05 1013.30 1013.53 1013.76 1014.01 1014.28 1014.60 1014.99
1004.07 1004.31 1004.64 1005.04 1005.48 1005.93 1006.36 1006.75 1007.10 1007.40 1007.65 1007.87 1008.05 1008.22 1008.37 1008.53 1008.68 1008.83 1008.97 1009.10 1009.22 1009.32 1009.41 1009.49 1009.57 1009.67 1009.78 1009.93 1010.12 1010.35 1010.61 1010.90 1011.20 1011.51 1011.81 1012.10 1012.38 1012.65 1012.92 1013.21 1013.54 1013.91 1014.35
1004.30 1004.48 1004.73 1005.04 1005.38 1005.73 1006.07 1006.37 1006.65 1006.88 1007.09 1007.26 1007.41 1007.55 1007.68 1007.81 1007.93 1008.04 1008.15 1008.23 1008.31 1008.37 1008.42 1008.47 1008.53 1008.61 1008.73 1008.89 1009.09 1009.34 1009.62 1009.94 1010.28 1010.63 1010.97 1011.31 1011.65 1011.98 1012.31 1012.67 1013.06 1013.50 1014.01
Thickness
5698 5697 5695 5693 5692 5691 5690 5689 5689 5688 5688 5687 5687 5686 5685 5684 5683 5682 5680 5679 5677 5676 5675 5673 5672 5671 5670 5668 5666 5664 5662 5659 5654 5651 5651 5652 5652 5652 5652 5652 5652 5652 5652
5698 5695 5693 5692 5690 5688 5687 5687 5688 5687 5687 5686 5685 5684 5683 5682 5681 5680 5679 5677 5675 5674 5673 5671 5670 5670 5667 5666 5664 5662 5660 5658 5655 5650 5649 5649 5649 5649 5648 5648 5648 5648 5648
5696 5693 5691 5689 5688 5687 5686 5686 5686 5686 5685 5685 5684 5683 5682 5681 5680 5678 5677 5675 5674 5673 5672 5670 5669 5668 5665 5664 5662 5660 5658 5657 5654 5650 5647 5645 5645 5645 5644 5644 5644 5643 5643
5693 5691 5689 5687 5686 5686 5685 5685 5684 5684 5683 5682 5682 5681 5680 5679 5678 5677 5675 5673 5672 5671 5670 5669 5668 5666 5664 5662 5660 5658 5656 5653 5650 5647 5644 5642 5640 5640 5639 5638 5637 5637 5637
5691 5689 5688 5687 5685 5684 5683 5683 5683 5682 5682 5681 5680 5679 5678 5677 5676 5675 5673 5671 5670 5669 5668 5667 5667 5666 5664 5662 5660 5656 5654 5650 5647 5644 5641 5638 5636 5635 5634 5633 5632 5631 5632
5690 5688 5687 5685 5683 5682 5681 5681 5680 5680 5679 5678 5677 5676 5675 5675 5675 5674 5672 5670 5668 5667 5665 5665 5664 5663 5662 5661 5659 5656 5653 5649 5645 5641 5638 5635 5634 5632 5631 5630 5627 5626 5626
5688 5686 5685 5683 5681 5680 5680 5678 5677 5677 5676 5675 5674 5673 5673 5673 5673 5672 5671 5668 5666 5664 5663 5662 5662 5661 5659 5657 5655 5653 5650 5648 5646 5642 5637 5635 5633 5631 5628 5626 5624 5622 5620
5686 5684 5683 5681 5680 5678 5676 5675 5675 5674 5673 5672 5671 5671 5670 5670 5670 5669 5668 5665 5663 5661 5660 5659 5658 5657 5656 5654 5651 5648 5645 5643 5642 5640 5638 5635 5633 5631 5628 5625 5622 5618 5616
5683 5682 5681 5680 5678 5676 5674 5673 5673 5672 5670 5669 5669 5668 5667 5668 5668 5667 5665 5662 5659 5658 5657 5656 5655 5653 5653 5650 5647 5643 5641 5639 5638 5636 5634 5632 5629 5627 5624 5620 5615 5613 5611
5682 5682 5680 5679 5677 5675 5673 5672 5671 5670 5668 5667 5666 5666 5666 5666 5666 5664 5662 5659 5656 5654 5653 5652 5652 5650 5649 5646 5643 5640 5637 5635 5633 5631 5629 5627 5624 5622 5619 5615 5612 5607 5604
5681 5679 5677 5676 5675 5674 5672 5670 5668 5666 5664 5663 5662 5662 5662 5662 5662 5661 5660 5656 5654 5652 5650 5649 5648 5647 5645 5643 5640 5637 5635 5632 5629 5626 5623 5620 5617 5615 5612 5610 5607 5603 5599
5677 5675 5674 5673 5672 5671 5668 5666 5664 5662 5660 5658 5657 5657 5657 5658 5658 5658 5657 5655 5653 5650 5648 5646 5645 5643 5641 5639 5636 5634 5631 5628 5623 5620 5616 5613 5610 5608 5606 5603 5600 5597 5594
5672 5671 5670 5669 5667 5666 5664 5661 5659 5658 5656 5654 5653 5652 5652 5653 5653 5654 5653 5651 5649 5646 5645 5643 5641 5639 5636 5634 5631 5629 5625 5621 5617 5613 5610 5607 5605 5602 5599 5596 5593 5589 5586
5667 5666 5665 5664 5662 5661 5660 5658 5655 5654 5653 5651 5650 5649 5649 5648 5648 5648 5647 5645 5644 5641 5639 5637 5635 5632 5630 5627 5625 5622 5619 5616 5612 5609 5605 5602 5598 5595 5592 5589 5585 5582 5578
5662 5661 5660 5659 5658 5656 5655 5653 5652 5652 5653 5651 5649 5648 5645 5645 5647 5646 5643 5641 5639 5637 5633 5630 5627 5624 5621 5619 5617 5614 5612 5609 5606 5602 5599 5595 5592 5588 5584 5581 5577 5573 5569
5657 5655 5654 5653 5652 5651 5649 5646 5646 5647 5647 5647 5647 5646 5645 5645 5644 5642 5640 5638 5635 5632 5628 5624 5621 5618 5616 5613 5610 5607 5605 5603 5600 5597 5593 5589 5586 5582 5578 5574 5570 5566 5562
5653 5651 5650 5649 5648 5646 5644 5642 5639 5639 5639 5639 5640 5640 5640 5639 5638 5636 5634 5631 5628 5626 5622 5619 5616 5613 5610 5608 5605 5602 5599 5597 5594 5590 5587 5583 5579 5575 5571 5567 5563 5558 5555
5649 5648 5647 5645 5643 5642 5640 5639 5637 5634 5632 5630 5632 5633 5633 5633 5631 5630 5627 5624 5619 5618 5616 5613 5610 5608 5605 5603 5600 5597 5594 5591 5587 5584 5580 5576 5572 5568 5564 5560 5556 5552 5549
5645 5643 5641 5640 5638 5637 5635 5633 5631 5630 5627 5625 5625 5625 5626 5625 5624 5622 5620 5617 5614 5611 5609 5607 5605 5603 5600 5598 5595 5592 5588 5585 5581 5577 5574 5570 5566 5562 5558 5554 5550 5546 5541
5639 5639 5637 5634 5632 5630 5628 5627 5625 5623 5621 5619 5619 5618 5618 5617 5615 5613 5612 5610 5609 5607 5604 5602 5600 5597 5594 5592 5589 5586 5582 5579 5575 5572 5568 5564 5560 5556 5552 5548 5543 5538 5533
5633 5632 5631 5629 5626 5625 5623 5621 5620 5618 5616 5614 5613 5613 5613 5612 5610 5608 5606 5604 5603 5601 5599 5597 5594 5591 5589 5586 5583 5579 5576 5573 5570 5566 5562 5558 5554 5549 5545 5541 5536 5531 5526
5628 5626 5625 5623 5621 5619 5617 5615 5613 5612 5611 5609 5608 5607 5607 5605 5604 5602 5600 5598 5597 5596 5593 5591 5588 5585 5583 5580 5577 5573 5570 5567 5564 5560 5556 5552 5548 5543 5538 5533 5528 5523 5518
5622 5620 5618 5617 5615 5614 5611 5609 5607 5606 5605 5603 5602 5601 5599 5598 5597 5595 5594 5592 5590 5588 5586 5583 5581 5578 5576 5573 5570 5567 5564 5561 5558 5554 5549 5545 5540 5536 5531 5525 5520 5515 5510
5616 5615 5613 5611 5609 5607 5605 5603 5602 5600 5599 5597 5596 5594 5593 5591 5590 5588 5586 5584 5582 5581 5579 5576 5574 5572 5569 5566 5563 5560 5557 5554 5550 5546 5542 5538 5533 5528 5523 5518 5513 5508 5503
5609 5607 5606 5605 5603 5601 5599 5598 5596 5595 5593 5591 5589 5587 5585 5584 5582 5581 5578 5577 5575 5573 5571 5569 5566 5564 5561 5558 5555 5552 5549 5546 5542 5538 5533 5529 5524 5520 5515 5510 5505 5500 5494
5601 5600 5599 5598 5596 5595 5593 5592 5589 5588 5586 5584 5582 5580 5578 5577 5575 5573 5571 5569 5567 5565 5563 5560 5558 5556 5553 5550 5547 5544 5541 5537 5533 5529 5524 5520 5515 5511 5506 5501 5496 5491 5486